Temperature
6 6 6 6 6 6 6 8 8 10 10 10 10 9 8 7 6 6 5 5 5 5 5 5 5 5 5 5 5 5 5 5 5 5 4 4 4 4 4 4 3 3 3 3
4 5 5 5 6 6 6 7 7 8 8 9 8 7 6 6 5 5 5 5 5 5 5 5 5 5 5 5 5 5 5 5 4 4 4 4 4 4 3 3 3 3 3 3
5 5 5 5 6 6 6 6 7 7 8 8 7 6 6 5 5 5 5 5 4 5 5 5 5 5 5 5 4 4 4 4 4 4 4 3 3 3 3 3 3 3 2 2
4 4 4 7 6 6 6 6 6 6 7 6 6 5 5 4 4 4 4 4 4 4 4 5 5 5 5 4 4 4 4 4 4 4 3 3 3 3 3 2 2 2 2 2
3 4 6 6 5 4 5 5 6 5 5 5 4 4 4 4 4 4 4 4 4 4 4 5 4 4 4 4 4 4 4 3 3 3 3 3 3 2 2 2 2 2 2 2
3 4 5 7 5 4 5 5 5 4 4 4 3 5 6 4 4 4 4 4 4 4 4 4 4 4 4 4 4 3 3 3 3 3 2 2 2 2 2 2 2 2 2 1
3 4 5 5 3 4 5 6 4 4 3 3 3 4 4 4 3 3 3 4 4 4 4 4 4 3 3 3 3 3 3 3 2 2 2 2 2 1 1 1 1 1 1 1
3 3 4 4 3 4 5 4 3 3 3 2 2 2 3 3 3 3 3 3 3 3 3 3 3 3 3 3 3 3 2 2 2 2 1 1 1 1 1 1 1 1 1 0
4 4 4 3 3 3 3 3 3 3 3 2 2 2 2 2 2 2 2 2 2 2 2 2 2 2 2 2 2 2 2 2 1 1 1 1 1 1 0 0 0 0 -0 -0
2 3 3 2 2 2 2 2 2 2 2 2 2 2 2 2 1 2 2 2 2 2 2 2 2 2 2 2 2 2 1 1 1 1 0 0 0 0 -0 -0 -0 -0 -1 -1
1 2 2 2 2 2 2 1 1 1 1 1 1 1 1 1 1 1 1 1 1 1 1 1 1 1 1 1 1 1 1 1 0 -0 -0 -0 -0 -0 -1 -1 -1 -1 -1 -1
1 2 1 1 1 1 1 1 1 1 1 1 1 1 1 1 1 1 1 1 1 1 1 1 1 1 1 1 1 0 0 -0 -0 -0 -1 -1 -1 -1 -1 -1 -1 -1 -1 -1
0 0 0 0 0 0 0 0 0 0 0 0 0 0 0 0 0 0 0 0 0 0 0 0 0 0 0 0 -0 -0 -1 -1 -1 -1 -1 -1 -1 -1 -2 -1 -2 -2 -2 -2
-1 -1 -1 -1 -1 -1 -1 -1 -1 -0 -0 -0 -0 -0 -0 -0 -0 -0 -0 -0 -0 -0 -0 -0 -0 -0 -1 -1 -1 -1 -1 -1 -2 -2 -2 -2 -2 -2 -2 -2 -2 -2 -2 -2
-2 -2 -2 -2 -2 -2 -2 -1 -1 -1 -1 -1 -1 -1 -1 -1 -1 -1 -1 -1 -1 -1 -1 -1 -1 -1 -1 -1 -1 -2 -2 -2 -2 -2 -3 -3 -3 -3 -3 -3 -3 -3 -3 -3
-3 -3 -3 -3 -3 -2 -2 -2 -2 -2 -2 -2 -2 -2 -2 -2 -2 -2 -2 -1 -1 -1 -1 -2 -2 -2 -2 -2 -2 -2 -2 -3 -3 -3 -3 -3 -3 -3 -3 -3 -3 -4 -4 -4
-4 -4 -4 -4 -4 -3 -3 -3 -3 -3 -3 -3 -3 -2 -2 -2 -2 -2 -2 -2 -2 -2 -2 -2 -3 -3 -3 -3 -3 -3 -3 -3 -3 -4 -4 -4 -4 -4 -4 -4 -4 -4 -4 -4
-4 -4 -4 -4 -4 -4 -4 -4 -4 -4 -4 -3 -3 -3 -3 -3 -3 -3 -3 -3 -3 -3 -3 -3 -3 -3 -3 -3 -3 -4 -4 -4 -4 -4 -4 -5 -5 -5 -5 -5 -5 -5 -5 -5
-5 -5 -5 -5 -5 -5 -5 -4 -4 -4 -4 -4 -4 -4 -4 -4 -4 -4 -4 -4 -4 -4 -4 -4 -4 -4 -4 -4 -4 -4 -4 -4 -5 -5 -5 -5 -5 -5 -5 -5 -5 -5 -5 -5
-5 -5 -5 -5 -5 -5 -5 -5 -5 -5 -5 -5 -5 -5 -5 -5 -4 -4 -4 -4 -5 -5 -5 -5 -5 -5 -5 -5 -5 -5 -5 -5 -5 -5 -5 -6 -6 -6 -6 -6 -6 -6 -6 -6
-6 -6 -6 -6 -6 -6 -6 -5 -5 -5 -6 -6 -6 -6 -5 -5 -5 -5 -5 -5 -5 -5 -5 -5 -5 -5 -5 -5 -5 -5 -6 -6 -6 -6 -6 -6 -6 -6 -6 -6 -6 -7 -7 -7
-7 -7 -7 -6 -6 -6 -6 -6 -6 -6 -6 -6 -6 -6 -6 -6 -6 -6 -6 -6 -6 -6 -6 -6 -6 -6 -6 -6 -6 -6 -6 -6 -6 -6 -7 -7 -7 -7 -7 -7 -7 -7 -7 -7
-7 -7 -7 -7 -7 -7 -7 -7 -7 -7 -7 -7 -7 -7 -7 -7 -7 -7 -7 -7 -7 -7 -7 -7 -7 -7 -7 -7 -7 -7 -7 -7 -7 -7 -7 -7 -7 -7 -7 -7 -7 -7 -7 -7
-8 -8 -8 -8 -8 -8 -8 -8 -8 -8 -8 -7 -7 -7 -7 -7 -7 -7 -7 -7 -7 -7 -7 -7 -7 -7 -7 -7 -7 -7 -7 -8 -8 -8 -8 -8 -8 -8 -8 -8 -8 -8 -8 -8
-8 -8 -8 -8 -8 -8 -8 -8 -8 -8 -8 -8 -8 -8 -8 -8 -8 -8 -8 -8 -8 -8 -8 -8 -8 -8 -8 -8 -8 -8 -8 -8 -8 -8 -8 -8 -8 -8 -8 -8 -8 -8 -8 -8
-9 -9 -9 -9 -9 -9 -9 -9 -9 -9 -9 -8 -8 -8 -8 -8 -8 -8 -8 -8 -8 -8 -8 -8 -8 -8 -8 -8 -8 -8 -8 -8 -8 -8 -8 -8 -9 -9 -8 -8 -8 -8 -8 -8
-9 -9 -9 -9 -9 -9 -9 -9 -9 -9 -9 -9 -9 -9 -9 -9 -9 -9 -9 -9 -9 -9 -9 -9 -9 -9 -9 -9 -9 -9 -9 -9 -9 -9 -9 -9 -9 -9 -9 -9 -9 -9 -9 -9
Wind_Speed
11 10 8 11 12 12 14 14 14 16 17 17 13 11 10 8 7 7 6 5 5 5 4 4 4 3 3 3 3 3 3 4 4 4 4 3 3 3 3 3 3 4 4 4
9 9 10 13 14 16 17 17 19 20 20 15 11 8 8 8 6 7 7 7 6 5 5 4 4 4 4 3 3 3 4 4 3 3 3 3 4 4 4 3 3 3 4 4
7 6 7 11 12 13 10 11 12 15 14 10 8 9 8 7 7 8 8 7 6 5 5 5 5 4 4 4 3 3 3 3 4 4 4 4 4 3 4 4 4 4 4 4
5 5 10 5 1 6 9 10 10 11 11 11 10 9 8 7 8 8 8 7 6 5 5 4 3 3 3 3 3 3 3 3 3 3 4 3 3 4 3 3 3 3 4 4
5 8 11 7 3 3 7 8 8 10 11 10 8 7 8 7 7 7 7 6 6 5 4 3 2 2 2 2 3 3 3 3 3 3 3 4 4 4 3 3 3 3 3 4
6 8 8 5 2 2 3 7 4 5 9 8 5 6 7 5 6 7 6 4 4 3 2 2 2 2 3 3 3 3 3 3 3 3 3 4 4 3 3 3 3 3 3 3
11 11 9 4 1 1 4 5 6 6 7 7 7 8 8 7 7 6 5 4 3 2 2 2 2 3 3 3 3 3 2 2 2 2 3 3 3 3 3 3 3 3 3 3
8 10 10 1 1 4 6 7 7 7 7 8 9 10 9 8 7 5 4 3 2 2 2 2 2 3 3 3 2 1 2 2 1 1 1 2 2 2 2 2 2 2 2 2
8 9 6 4 7 8 8 9 9 8 9 8 10 11 10 9 7 5 4 2 2 2 1 1 2 3 3 2 1 2 2 1 1 1 1 1 2 2 1 2 2 2 2 2
10 12 11 10 10 10 10 11 11 10 10 9 10 10 9 8 6 5 3 2 2 2 2 2 2 2 2 1 2 2 2 1 1 1 1 0 0 1 1 2 2 2 2 2
13 13 12 11 11 11 12 11 11 11 10 10 10 10 9 7 6 5 3 3 2 3 3 2 2 2 1 1 2 2 1 1 0 0 0 0 1 1 2 2 3 3 3 3
12 11 11 14 13 13 13 13 12 11 10 10 9 9 8 6 5 4 4 3 3 3 3 2 2 2 1 1 2 2 1 1 1 1 0 1 1 1 2 2 3 4 4 5
13 13 14 15 14 12 12 12 11 10 10 9 8 7 6 5 4 3 3 3 3 3 2 2 2 2 1 1 1 2 2 1 1 1 1 1 1 1 2 2 2 3 4 4
10 9 11 12 12 12 12 11 9 8 8 7 6 5 4 3 2 2 3 2 2 1 1 1 1 1 1 1 1 1 1 1 1 1 1 1 1 2 2 2 3 3 3 3
10 10 11 11 11 10 8 7 6 5 5 4 3 3 3 2 2 2 1 1 1 1 1 1 1 0 0 1 1 1 1 1 1 1 1 1 1 2 2 2 3 3 3 3
10 9 9 10 11 10 8 6 5 5 4 3 3 2 2 1 1 1 0 1 1 1 0 0 0 0 0 1 1 1 1 1 1 1 1 1 1 2 2 2 2 3 3 3
7 7 8 9 9 9 7 5 5 4 4 3 2 2 1 1 1 1 1 1 1 1 0 0 0 1 0 0 0 0 0 1 1 1 1 2 2 2 2 2 3 3 3 4
8 8 7 8 8 7 6 5 4 3 3 2 1 0 1 1 1 0 1 2 2 2 2 2 1 1 1 0 0 0 0 1 1 1 1 2 2 2 2 3 3 3 3 3
8 7 7 7 6 5 4 4 4 3 2 1 1 1 0 1 1 1 2 2 2 2 2 2 2 2 1 1 1 1 1 1 1 1 1 2 2 2 3 3 3 3 3 3
8 7 7 7 6 5 4 4 3 3 3 2 2 2 2 2 2 2 2 2 2 2 2 2 2 2 1 1 2 1 1 1 1 1 2 2 2 3 3 3 3 3 3 3
7 7 6 6 6 5 5 4 3 3 4 3 3 3 3 3 3 2 2 2 3 3 2 2 2 2 2 2 2 1 1 1 1 2 2 2 2 3 3 2 2 3 3 2
6 6 6 5 5 6 5 5 4 4 4 4 4 4 4 4 4 3 3 2 3 3 3 2 2 2 2 2 1 1 1 1 2 2 2 2 2 3 3 3 3 3 2 2
6 5 5 5 5 5 6 6 5 5 5 5 4 4 4 3 3 3 3 3 3 4 3 2 3 3 3 2 2 1 1 2 2 2 2 2 2 3 3 3 3 2 2 2
5 5 5 5 5 5 6 6 6 5 5 5 5 5 4 3 3 3 3 4 4 4 3 3 4 4 4 3 2 2 2 2 2 2 2 2 2 2 3 3 3 2 2 3
5 5 5 5 6 5 5 5 5 6 5 5 6 6 5 4 3 3 4 4 5 5 3 4 5 5 4 3 2 2 2 2 2 2 2 2 3 3 3 3 2 3 3 3
5 5 4 5 4 4 4 4 4 4 4 4 5 5 5 4 4 4 3 4 5 5 4 3 4 4 3 3 3 3 2 2 3 2 2 3 3 3 3 3 3 3 3 3
5 5 4 5 5 5 4 4 4 4 4 4 4 5 5 4 4 4 4 4 4 4 4 4 4 3 3 3 3 3 3 3 3 3 3 3 3 3 3 3 3 3 3 3
Wind_Direction
269 277 266 260 253 238 234 239 250 261 266 276 283 283 281 281 281 283 285 282 275 268 258 243 237 239 239 237 237 228 210 208 212 206 198 197 192 193 192 194 199 201 204 209
274 270 264 265 256 245 243 247 252 263 270 281 288 278 274 276 278 279 282 280 277 266 254 241 236 237 236 230 231 221 211 213 213 205 201 200 192 191 192 199 205 208 211 215
269 284 285 262 250 237 237 236 242 252 267 287 282 274 271 272 274 275 279 279 271 257 248 243 236 228 230 229 216 209 210 212 206 200 195 199 192 189 197 201 205 214 218 222
261 267 246 261 297 237 238 247 247 260 275 282 284 282 273 269 272 274 278 277 271 260 253 249 239 227 226 217 202 199 202 207 206 201 200 200 198 199 207 211 212 217 223 230
233 254 266 279 276 240 235 260 264 263 277 294 310 296 276 265 266 269 274 275 270 256 246 241 228 214 204 201 197 197 206 214 215 210 203 202 207 214 212 212 217 222 226 234
236 250 256 272 314 299 233 262 297 279 282 293 301 284 288 301 279 278 281 280 273 253 233 224 217 194 191 198 197 208 219 225 220 214 209 212 213 214 215 213 218 221 233 238
239 248 261 281 337 139 233 293 328 297 288 286 274 276 303 305 289 282 281 282 270 221 211 211 192 186 196 205 215 217 209 208 214 216 218 220 217 211 208 207 211 223 240 250
232 242 253 216 179 231 282 318 314 306 301 290 286 294 300 296 290 286 284 280 250 214 213 195 180 184 199 218 217 184 172 177 195 212 210 210 207 213 209 201 212 230 249 268
231 248 288 253 261 280 296 298 299 301 302 294 292 293 294 291 284 278 268 255 235 210 196 187 192 196 203 220 176 157 157 168 182 188 191 200 204 207 219 220 225 241 246 260
260 266 277 277 279 286 291 291 295 293 293 290 288 289 289 286 276 266 259 243 224 199 201 208 212 217 209 180 157 156 165 171 172 178 167 164 199 216 228 236 240 247 253 260
264 274 287 278 281 288 291 290 288 289 288 284 282 282 280 276 264 256 253 250 229 216 216 218 205 210 194 169 155 158 167 178 204 240 234 264 291 280 261 264 262 254 258 261
264 276 279 285 290 289 288 286 283 284 286 282 273 273 273 268 257 247 244 237 229 227 222 215 197 198 191 179 169 162 174 197 228 253 286 292 291 321 327 283 294 291 283 277
274 285 282 284 288 287 285 285 283 279 277 278 275 265 263 265 254 243 237 229 226 224 217 203 192 190 185 183 182 185 189 203 223 241 251 259 266 272 302 322 303 291 289 289
287 293 287 289 292 293 290 287 282 278 275 271 272 267 257 255 243 232 233 232 221 206 203 194 186 194 178 165 172 182 183 197 216 232 248 253 261 268 273 285 301 308 308 302
290 289 284 293 297 299 299 295 286 280 282 281 274 260 253 252 252 261 263 214 155 167 192 185 186 242 162 174 174 174 182 207 229 244 261 264 266 270 271 274 281 292 303 308
302 299 296 297 300 303 300 294 284 281 279 275 269 264 264 262 275 335 17 122 148 178 211 201 268 296 199 173 153 166 204 212 256 246 252 259 260 260 266 271 277 282 288 296
307 308 309 309 306 304 301 294 284 280 281 274 272 272 248 121 89 51 37 45 60 45 345 298 317 12 16 204 180 187 203 210 249 263 256 257 261 264 268 271 275 282 287 292
304 302 304 302 303 305 312 314 308 301 299 298 309 290 148 142 140 78 52 59 59 40 21 15 17 19 6 349 351 308 248 246 255 269 273 270 274 272 270 270 273 281 290 291
329 325 325 322 318 315 318 326 333 340 349 3 33 56 81 104 100 82 67 66 60 25 6 19 18 15 14 359 344 322 298 288 295 292 288 280 283 278 275 273 276 280 284 283
340 340 342 343 346 344 344 352 3 14 20 34 50 54 51 47 59 67 61 41 11 353 360 7 8 11 9 351 339 326 319 302 293 291 289 283 284 285 282 278 278 282 283 278
344 346 350 353 357 1 6 14 26 27 26 36 49 50 45 38 44 52 54 30 6 13 13 13 8 3 356 343 334 332 319 298 288 284 283 285 289 289 286 284 283 282 280 279
345 349 356 5 15 16 16 22 30 37 38 38 40 43 46 38 34 35 29 15 4 6 3 360 1 357 352 345 338 337 326 311 304 297 291 291 291 289 290 292 288 286 284 283
350 357 6 14 21 24 24 25 28 35 38 36 34 33 34 25 17 20 11 4 4 5 3 4 7 3 357 358 354 346 332 318 310 302 295 290 287 286 287 291 291 289 287 286
6 15 18 22 31 37 31 24 28 33 36 36 31 26 23 22 19 17 8 1 6 8 8 7 12 11 7 5 360 347 333 321 311 303 295 289 286 285 283 284 285 288 287 287
15 20 24 27 30 28 23 24 30 32 33 32 27 22 18 15 11 1 2 6 8 8 8 8 10 11 7 359 348 334 323 310 302 298 291 286 284 282 280 279 278 279 280 281
19 22 23 22 21 17 15 20 26 22 22 21 16 13 12 12 11 8 7 7 8 7 5 359 357 360 356 349 339 329 321 314 312 306 295 290 284 281 279 276 276 274 275 277
23 24 22 22 20 18 18 22 23 17 13 13 10 5 6 5 8 9 8 6 5 3 359 354 352 350 346 341 334 327 322 317 312 305 298 291 284 281 280 277 276 276 277 275
Height
1497 1496 1496 1494 1493 1495 1494 1487 1483 1472 1469 1466 1468 1471 1471 1471 1470 1469 1468 1467 1466 1465 1465 1464 1464 1464 1463 1463 1462 1463 1463 1464 1464 1465 1465 1466 1466 1467 1467 1468 1468 1469 1470 1471
1500 1495 1494 1492 1487 1487 1486 1483 1479 1474 1469 1467 1468 1469 1468 1468 1467 1465 1464 1463 1462 1461 1461 1461 1461 1461 1460 1460 1460 1460 1461 1461 1462 1462 1463 1463 1464 1464 1465 1465 1465 1466 1466 1467
1494 1494 1492 1484 1477 1478 1478 1476 1474 1471 1466 1466 1466 1466 1465 1464 1463 1462 1461 1459 1458 1458 1458 1458 1458 1458 1458 1457 1457 1458 1458 1458 1459 1459 1460 1460 1461 1461 1462 1462 1463 1463 1463 1464
1496 1495 1490 1470 1472 1471 1471 1470 1470 1468 1465 1464 1463 1462 1461 1460 1459 1458 1457 1456 1455 1454 1454 1454 1454 1455 1455 1455 1455 1455 1455 1455 1456 1457 1457 1458 1458 1458 1459 1459 1460 1460 1460 1460
1493 1484 1472 1470 1471 1471 1470 1466 1465 1465 1463 1462 1461 1459 1456 1455 1455 1454 1453 1452 1452 1451 1451 1451 1451 1451 1451 1452 1452 1452 1452 1453 1453 1454 1454 1455 1455 1455 1456 1456 1457 1457 1457 1457
1489 1484 1473 1464 1467 1467 1468 1462 1461 1461 1460 1460 1459 1457 1451 1451 1450 1450 1449 1448 1448 1448 1447 1448 1448 1448 1448 1448 1449 1449 1449 1450 1451 1451 1451 1452 1452 1453 1453 1454 1454 1454 1454 1454
1483 1477 1465 1465 1467 1467 1466 1459 1459 1458 1457 1457 1456 1454 1451 1448 1447 1446 1445 1445 1444 1444 1444 1445 1445 1445 1445 1445 1446 1447 1447 1447 1448 1448 1448 1449 1449 1450 1450 1450 1451 1451 1451 1451
1478 1475 1467 1464 1465 1464 1460 1458 1457 1456 1455 1454 1452 1449 1447 1445 1444 1443 1442 1441 1441 1441 1442 1442 1442 1442 1443 1443 1444 1444 1444 1445 1445 1445 1445 1446 1446 1447 1447 1447 1447 1447 1447 1447
1468 1464 1461 1461 1461 1459 1458 1456 1455 1453 1452 1450 1448 1445 1443 1442 1440 1439 1439 1439 1439 1439 1439 1439 1440 1440 1440 1441 1441 1442 1442 1442 1442 1443 1443 1443 1444 1444 1444 1444 1444 1444 1444 1444
1466 1460 1459 1458 1457 1456 1455 1453 1451 1450 1448 1446 1444 1441 1439 1438 1437 1436 1436 1436 1436 1436 1436 1437 1437 1438 1438 1439 1439 1439 1440 1440 1440 1440 1440 1441 1441 1441 1441 1441 1441 1441 1441 1440
1460 1457 1456 1453 1453 1452 1450 1448 1446 1444 1443 1441 1439 1437 1436 1434 1434 1433 1433 1433 1433 1433 1433 1434 1435 1435 1436 1436 1436 1436 1437 1437 1438 1438 1438 1438 1438 1439 1439 1439 1439 1439 1438 1438
1454 1453 1453 1449 1448 1447 1445 1443 1441 1439 1437 1435 1435 1433 1431 1430 1430 1430 1430 1430 1430 1430 1431 1431 1431 1432 1433 1434 1434 1434 1434 1434 1435 1435 1435 1435 1435 1436 1436 1436 1436 1436 1436 1435
1452 1450 1448 1445 1443 1441 1439 1437 1435 1434 1432 1430 1429 1429 1428 1427 1426 1426 1427 1427 1427 1427 1428 1428 1429 1429 1430 1431 1431 1431 1432 1432 1432 1432 1432 1433 1433 1433 1432 1433 1433 1433 1432 1432
1448 1446 1443 1440 1438 1435 1433 1430 1429 1428 1427 1426 1425 1424 1424 1423 1423 1423 1423 1424 1424 1425 1425 1426 1426 1427 1427 1428 1428 1429 1429 1429 1429 1429 1429 1430 1430 1430 1430 1429 1429 1428 1429 1428
1443 1442 1439 1435 1432 1430 1427 1425 1423 1422 1422 1421 1421 1421 1421 1420 1420 1420 1421 1421 1422 1422 1423 1423 1424 1425 1425 1425 1426 1426 1426 1426 1426 1426 1426 1427 1427 1427 1426 1426 1426 1425 1425 1424
1438 1436 1434 1431 1428 1425 1423 1421 1420 1418 1418 1418 1418 1418 1418 1418 1418 1418 1419 1419 1419 1420 1420 1421 1422 1422 1422 1423 1423 1423 1423 1423 1424 1423 1423 1423 1423 1423 1423 1423 1422 1422 1421 1421
1435 1432 1429 1427 1425 1422 1420 1419 1417 1416 1416 1415 1415 1415 1415 1415 1416 1416 1417 1417 1418 1418 1419 1419 1420 1420 1420 1420 1420 1420 1420 1420 1421 1420 1420 1420 1420 1420 1419 1419 1419 1418 1418 1417
1433 1430 1428 1425 1422 1420 1418 1416 1415 1414 1414 1413 1413 1413 1413 1413 1413 1414 1415 1415 1416 1416 1417 1417 1418 1418 1418 1418 1418 1418 1418 1418 1418 1417 1417 1417 1417 1417 1416 1416 1415 1415 1414 1414
1429 1427 1425 1423 1420 1418 1416 1415 1414 1413 1412 1411 1411 1411 1411 1412 1412 1413 1413 1414 1414 1414 1415 1415 1415 1415 1415 1415 1415 1415 1415 1415 1415 1415 1414 1414 1414 1413 1413 1413 1412 1412 1411 1411
1427 1425 1423 1421 1419 1417 1415 1414 1413 1412 1411 1411 1410 1410 1410 1411 1411 1412 1412 1412 1413 1413 1413 1413 1413 1413 1413 1413 1413 1413 1413 1412 1412 1412 1411 1411 1411 1410 1410 1410 1409 1408 1408 1407
1426 1424 1421 1419 1418 1416 1415 1414 1412 1411 1410 1410 1410 1410 1410 1410 1411 1411 1411 1411 1412 1412 1412 1411 1411 1411 1411 1411 1411 1411 1410 1410 1409 1409 1409 1408 1408 1407 1407 1406 1406 1405 1405 1404
1425 1423 1421 1419 1418 1416 1415 1414 1413 1412 1411 1410 1410 1410 1410 1410 1411 1411 1411 1411 1411 1410 1410 1410 1409 1409 1409 1409 1409 1408 1408 1407 1407 1406 1406 1405 1405 1404 1404 1403 1403 1402 1402 1401
1425 1423 1421 1419 1418 1416 1415 1414 1413 1412 1412 1411 1411 1411 1411 1411 1411 1410 1410 1410 1410 1409 1409 1408 1408 1407 1407 1407 1406 1406 1405 1405 1404 1403 1403 1402 1402 1401 1401 1400 1400 1399 1399 1398
1425 1423 1422 1420 1419 1417 1416 1415 1414 1413 1413 1412 1412 1412 1411 1411 1411 1411 1410 1410 1409 1408 1407 1407 1406 1405 1405 1404 1404 1403 1402 1402 1401 1400 1400 1399 1399 1398 1398 1397 1397 1396 1396 1396
1426 1425 1423 1421 1419 1418 1417 1416 1415 1414 1414 1413 1413 1413 1412 1412 1411 1410 1410 1409 1408 1407 1406 1406 1405 1404 1403 1402 1401 1401 1400 1399 1398 1398 1397 1397 1396 1396 1395 1395 1394 1394 1394 1393
1427 1426 1424 1423 1421 1420 1418 1417 1416 1415 1415 1414 1413 1413 1412 1412 1411 1410 1409 1408 1408 1406 1405 1404 1403 1402 1401 1400 1399 1398 1397 1397 1396 1395 1395 1394 1394 1393 1393 1392 1392 1391 1391 1390
1429 1427 1426 1424 1423 1421 1420 1419 1418 1417 1416 1415 1414 1413 1412 1412 1411 1410 1409 1408 1406 1405 1404 1403 1402 1401 1399 1398 1397 1396 1395 1394 1394 1393 1392 1392 1391 1391 1390 1390 1389 1389 1388 1388